Atwater, CA

10:31 PM PST on January 16, 2018 (GMT -0800)
Castle

Weather History for KMER - March, 2013

Change the Weather History Date:

Saturday, March 30, 2013

  Actual Average (KMCE) Record (KMCE)
Temperature  
Mean Temperature 66 °F -  
Max Temperature 82 °F 71 °F 87 °F (2015)
Min Temperature 51 °F 43 °F 38 °F (2016)
Cooling Degree Days 2    
Growing Degree Days 16 (Base 50)    
Moisture  
Dew Point 53 °F    
Average Humidity 80    
Maximum Humidity 100    
Minimum Humidity 25    
Precipitation  
Precipitation 0.01 in - - ()
Sea Level Pressure  
Sea Level Pressure 30.00 in    
Wind  
Wind Speed 4 mph (NNW)    
Max Wind Speed 15 mph    
Max Gust Speed -    
Visibility 10 miles    
Events      
Averages and records for this station are not official NWS values.
T = Trace of Precipitation, MM = Missing Value Source: NWS Daily Summary

Daily Weather History Graph

Daily Weather History Graph

Search for Another Location

Airport or City:

Trip Planner

Search our weather history database for the weather conditions in past years. The results will help you decide how hot, cold, wet, or windy it might be!

Date:

Astronomy

Mar. 30, 2013 Rise Set
Actual Time 6:50 AM PDT 7:23 PM PDT
Civil Twilight 6:24 AM PDT 7:49 PM PDT
Nautical Twilight 5:53 AM PDT 8:20 PM PDT
Astronomical Twilight 5:21 AM PDT 8:52 PM PDT
Moon 11:30 PM PDT (3/30) 8:54 AM PDT (3/30)
Length of Visible Light 13h 25m
Length of Day
12h 33m
Waning Gibbous, 85% of the Moon is Illuminated
Mar 30
Waning Gibbous
Apr 2
Last Quarter
Apr 10
New
Apr 18
First Quarter
Apr 25
Full

Hourly Weather History & Observations

Time (PDT) Temp. Dew Point Humidity Pressure Visibility Wind Dir Wind Speed Gust Speed Precip Events Conditions
12:15 AM 59.0 °F 59.0 °F 100% 30.02 in 10.0 mi North 4.6 mph - N/A   Clear
12:35 AM 55.4 °F 55.4 °F 100% 30.02 in 10.0 mi Calm Calm - N/A   Clear
12:55 AM 55.4 °F 55.4 °F 100% 30.02 in 10.0 mi Calm Calm - N/A   Clear
1:15 AM 55.4 °F 55.4 °F 100% 30.02 in 10.0 mi Calm Calm - N/A   Clear
1:35 AM 53.6 °F 53.6 °F 100% 30.02 in 10.0 mi Calm Calm - N/A   Clear
1:55 AM 53.6 °F 53.6 °F 100% 30.01 in 10.0 mi Calm Calm - N/A   Clear
2:15 AM 53.6 °F 53.6 °F 100% 30.01 in 10.0 mi Calm Calm - N/A   Clear
2:35 AM 55.4 °F 55.4 °F 100% 30.01 in 10.0 mi Calm Calm - N/A   Clear
2:55 AM 55.4 °F 55.4 °F 100% 30.01 in 10.0 mi Calm Calm - N/A   Clear
3:15 AM 55.4 °F 55.4 °F 100% 30.01 in 10.0 mi Calm Calm - N/A   Clear
3:35 AM 55.4 °F 55.4 °F 100% 30.01 in 10.0 mi Calm Calm - N/A   Clear
3:55 AM 55.4 °F 55.4 °F 100% 30.01 in 10.0 mi NW 4.6 mph - N/A   Clear
4:15 AM 53.6 °F 53.6 °F 100% 30.00 in 10.0 mi North 3.5 mph - N/A   Clear
4:35 AM 53.6 °F 53.6 °F 100% 30.01 in 10.0 mi NW 3.5 mph - N/A   Clear
4:55 AM 53.6 °F 53.6 °F 100% 30.00 in 10.0 mi NNW 4.6 mph - N/A   Clear
5:15 AM 53.6 °F 53.6 °F 100% 30.00 in 10.0 mi North - - N/A   Clear
5:35 AM 53.6 °F 53.6 °F 100% 30.00 in 10.0 mi North - - N/A   Clear
5:55 AM 53.6 °F 53.6 °F 100% 30.00 in 10.0 mi ENE 3.5 mph - N/A   Clear
6:15 AM 53.6 °F 53.6 °F 100% 30.00 in 10.0 mi NE 4.6 mph - N/A   Clear
6:35 AM 51.8 °F 51.8 °F 100% 30.01 in 10.0 mi Calm Calm - N/A   Clear
6:45 AM 51.8 °F 51.8 °F 100% 30.01 in 10.0 mi Calm Calm - N/A   Mostly Cloudy
6:55 AM 53.6 °F 53.6 °F 100% 30.02 in 10.0 mi ENE 3.5 mph - N/A   Clear
7:45 AM 55.4 °F 55.4 °F 100% 30.03 in 10.0 mi Calm Calm - N/A   Mostly Cloudy
8:45 AM 60.8 °F 55.4 °F 82% 30.04 in 10.0 mi Calm Calm - N/A   Mostly Cloudy
9:45 AM 66.2 °F 53.6 °F 64% 30.04 in 10.0 mi Variable 4.6 mph - N/A   Scattered Clouds
10:45 AM 71.6 °F 53.6 °F 53% 30.05 in 10.0 mi NNW 5.8 mph - N/A   Scattered Clouds
11:45 AM 75.2 °F 51.8 °F 44% 30.04 in 10.0 mi Variable 4.6 mph - N/A   Scattered Clouds
12:45 PM 80.6 °F 50.0 °F 34% 30.02 in 10.0 mi Variable 4.6 mph - N/A   Mostly Cloudy
1:45 PM 82.4 °F 46.4 °F 28% 30.00 in 10.0 mi Variable 3.5 mph - N/A   Partly Cloudy
2:45 PM 82.4 °F 42.8 °F 25% 29.98 in 10.0 mi SW 8.1 mph - N/A   Clear
3:45 PM 82.4 °F 42.8 °F 25% 29.95 in 10.0 mi South 11.5 mph - N/A   Partly Cloudy
4:45 PM 80.6 °F 42.8 °F 26% 29.93 in 10.0 mi South 6.9 mph - N/A   Partly Cloudy
5:45 PM 78.8 °F - N/A% 29.92 in 10.0 mi NNW 15.0 mph - N/A   Scattered Clouds
6:45 PM 75.2 °F 48.2 °F 38% 29.92 in 10.0 mi NW 9.2 mph - N/A   Scattered Clouds
7:45 PM 68.0 °F 55.4 °F 64% 29.95 in 10.0 mi NNW 13.8 mph - N/A   Clear
8:45 PM 66.2 °F 55.4 °F 68% 29.97 in 10.0 mi NW 11.5 mph - N/A   Clear
9:15 PM 64.4 °F 53.6 °F 68% 29.98 in 10.0 mi North 11.5 mph - N/A   Partly Cloudy
9:35 PM 64.4 °F 51.8 °F 64% 29.99 in 10.0 mi North 10.4 mph - N/A   Scattered Clouds
9:55 PM 62.6 °F 51.8 °F 68% 30.00 in 10.0 mi NNW 9.2 mph - N/A   Scattered Clouds
10:15 PM 62.6 °F 51.8 °F 68% 30.01 in 10.0 mi NNW 9.2 mph - N/A   Mostly Cloudy
10:35 PM 62.6 °F 51.8 °F 68% 30.01 in 10.0 mi North 9.2 mph - N/A   Mostly Cloudy
10:55 PM 62.6 °F 51.8 °F 68% 30.01 in 10.0 mi North 9.2 mph - N/A   Overcast
11:15 PM 62.6 °F 51.8 °F 68% 30.01 in 10.0 mi North 10.4 mph - N/A   Mostly Cloudy
11:35 PM 57.2 °F 57.2 °F 100% 30.04 in 9.0 mi Calm Calm - N/A   Overcast
11:55 PM 57.2 °F 57.2 °F 100% 30.03 in 4.0 mi North - - 0.01 in   Mostly Cloudy